User: anonymous   Login
Location: Castiglione Fibocchi
(43.5333°N, 11.7667°E)
Time: 07:41:13
(UTC+00:00)
Language:

COBE Rocket - Orbit

View from above orbital plane
View from above orbital plane
View from above satellite
View from above satellite

Ground track
Ground track

The orbit data is extracted from the following two-line orbital elements,

1 20323U 89089B   20295.30086760 +.00000082 +00000-0 +30404-4 0  9997
2 20323 097.1088 061.1212 0071418 193.9033 166.0199 14.48363384611089
Epoch (UTC): 21 October 2020 07:13:14
Eccentricity: 0.0071418
inclination: 97.1088°
perigee height: 680 km
apogee height: 782 km
right ascension of ascending node: 61.1212°
argument of perigee: 193.9033°
revolutions per day: 14.48363384
mean anomaly at epoch: 166.0199°
orbit number at epoch: 61108

The dashed part of the orbit path shows where the satellite is in the earth's shadow,  

DLR